Home > Weather > Abidjan > Past weeks

Flag for Cote d'Ivoire (Ivory Coast) Weather for the Past 2 Weeks in Abidjan, Cote d'Ivoire (Ivory Coast)

Now
81 °F

Passing clouds.


Feels Like: 88 °F
Forecast: 76 / 91 °F
Wind: 2 mph from West

Location: Abidjan Airport

Current Time: Feb 10, 2016 at 4:54:48 AM

Latest Report: Feb 10, 2016 at 4:00 AM


Visibility: 4 mi

Pressure: 29.86 "Hg

Humidity: 94%

Dew point: 79 °F

Location of AbidjanLocation

Historic Weather in Abidjan — Graph

°F

Abidjan Temperature Yesterday

Maximum temperature yesterday: 90 °F (at 12:00 PM)
Minimum temperature yesterday: 81 °F (at 12:00 AM)
Average temperature yesterday: 84 °F

High & Low Weather Summary for the Past Weeks

 TemperatureHumidityPressure
High91 °F (Jan 26, 2:00 PM)100% (Jan 26, 4:30 AM)30.01 "Hg (Jan 26, 4:30 AM)
Low48 °F (Feb 4, 4:30 PM)17% (Jan 29, 2:30 PM)29.77 "Hg (Jan 29, 4:30 PM)
Average82 °F79%29.89 "Hg
* Reported Jan 26 4:00 AM — Feb 10 4:00 AM, Abidjan, Weather by CustomWeather, © 2016

Note: Actual official high and low records may vary slightly from our data, if they occured in-between our weather recording intervals... More about our weather records

Advertising

Abidjan Weather History for the Previous 24 Hours

 ConditionsComfort  
Time TempWeatherWind HumidityBarometerVisibility
4:00 AM
Wed, Feb 10
81 °FPassing clouds.2 mph94%29.86 "Hg4 mi
3:30 AM81 °FPassing clouds.2 mph94%29.86 "Hg4 mi
3:00 AM81 °FPassing clouds.5 mph94%29.89 "Hg4 mi
2:30 AM81 °FPassing clouds.6 mph100%29.89 "Hg4 mi
2:00 AM81 °FPassing clouds.3 mph100%29.89 "Hg4 mi
1:30 AM81 °FClear.2 mph94%29.89 "Hg4 mi
12:30 AM81 °FClear.3 mph100%29.92 "Hg4 mi
12:00 AM81 °FClear.3 mph94%29.92 "Hg4 mi
11:30 PM
Tue, Feb 9
81 °FClear.3 mph100%29.95 "Hg4 mi
11:00 PM81 °FClear.3 mph100%29.95 "Hg4 mi
10:30 PM81 °FClear.2 mph100%29.92 "Hg4 mi
9:30 PM82 °FClear.3 mph94%29.95 "Hg4 mi
9:00 PM82 °FClear.5 mph94%29.92 "Hg4 mi
8:30 PM82 °FClear.6 mph94%29.92 "Hg4 mi
8:00 PM82 °FClear.5 mph89%29.89 "Hg4 mi
7:30 PM82 °FClear.5 mph89%29.89 "Hg4 mi
7:00 PM84 °FClear.8 mph84%29.86 "Hg4 mi
6:30 PM84 °FClear.9 mph84%29.86 "Hg4 mi
6:00 PM86 °FClear.10 mph79%29.86 "Hg4 mi
5:30 PM86 °FSunny.10 mph79%29.86 "Hg4 mi
5:00 PM86 °FPassing clouds.13 mph79%29.86 "Hg4 mi
4:30 PM88 °FPassing clouds.13 mph70%29.86 "Hg4 mi
4:00 PM90 °FPassing clouds.12 mph67%29.86 "Hg4 mi
3:30 PM88 °FPassing clouds.12 mph66%29.86 "Hg4 mi
3:00 PM88 °FPassing clouds.12 mph66%29.86 "Hg4 mi
2:30 PM90 °FScattered clouds.13 mph67%29.89 "Hg4 mi
2:00 PM90 °FScattered clouds.12 mph67%29.89 "Hg4 mi
1:30 PM90 °FScattered clouds.9 mph67%29.92 "Hg4 mi
1:00 PM90 °FScattered clouds.8 mph67%29.92 "Hg4 mi
12:30 PM90 °FScattered clouds.3 mph59%29.95 "Hg4 mi
12:00 PM90 °FScattered clouds.6 mph63%29.95 "Hg4 mi
11:30 AM88 °FScattered clouds.5 mph70%29.98 "Hg4 mi
10:30 AM86 °FScattered clouds.5 mph75%29.98 "Hg4 mi
10:00 AM84 °FScattered clouds.3 mph79%29.98 "Hg4 mi
9:00 AM84 °FScattered clouds.3 mph84%29.98 "Hg4 mi
8:00 AM82 °FScattered clouds.5 mph89%29.95 "Hg4 mi
7:00 AM81 °FPassing clouds.3 mph94%29.95 "Hg4 mi
6:00 AM81 °FPassing clouds.3 mph94%29.92 "Hg4 mi
5:30 AM81 °FPassing clouds.3 mph94%29.92 "Hg4 mi
5:00 AM81 °FPassing clouds.3 mph94%29.89 "Hg4 mi
4:30 AM81 °FPassing clouds.2 mph94%29.89 "Hg4 mi
4:00 AM81 °FPassing clouds.3 mph94%29.89 "Hg4 mi
Weather by CustomWeather, © 2016

See weather overviewHow to use our weather pages